User: anonymous   Login
Location: Unspecified
(0.0000°N, 0.0000°E)
Time: 00:07:07
(UTC+00:00)
Language:

CENTISPACE-1 S14 - Orbit

View from above orbital plane
View from above orbital plane
View from above satellite
View from above satellite

Ground track
Ground track

The orbit is defined by the following mean orbital elements,

1 62583U          26145.61729935 +.00000000 +00000-0 +82919-4 0 00000
2 62583  54.9855  11.5101 0012854  54.4997 305.7157 13.80603025    05
Epoch (UTC): 25 May 2026 14:48:54
Eccentricity: 0.0012854
inclination: 54.9855°
perigee height: 952 km
apogee height: 971 km
right ascension of ascending node: 11.5101°
argument of perigee: 54.4997°
revolutions per day: 13.80603025
mean anomaly at epoch: 305.7157°

The dashed part of the orbit path shows where the satellite is in the earth's shadow,  

DLR